Location: Alma
(38.7220°N, 88.9090°W)
Time: 23:47:30
(UTC-06:00)

Vanguard 2 - Pass Details

Date: 17 November 2019
Orbit: 553 x 2938 km, 32.9° (Epoch: 07 December)

Event Time Altitude Azimuth Distance (km) Brightness Sun altitude
Rises 12:12:13 0° 267° (W) 3,674 11.2 31.8°
Reaches altitude 10° 12:15:26 10° 259° (W) 2,416 10.4 31.7°
Maximum altitude 12:20:16 35° 195° (SSW) 1,044 11.5 31.5°
Drops below altitude 10° 12:24:00 10° 128° (SE) 1,862 9.9 31.3°
Sets 12:26:11 0° 118° (ESE) 2,713 10.5 31.3°
